﻿_id,日時,平均風速(m/s),平均風向,最大瞬間風速(m/s),最大風速時風向,気温(℃),湿度(%),10分間移動積算雨量(mm),1時間移動積算雨量(mm),日雨量(mm),累計雨量(mm)
1,2024-05-13T00:00:00,2.9,南東,6.5,南東,17.7,98.8,1.5,9,20,20
2,2024-05-13T00:01:00,3.2,南東,7.1,東南東,17.6,98.8,1.5,9,0,20
3,2024-05-13T00:02:00,3.4,南東,7.1,東南東,17.7,98.8,2,9.5,0.5,20.5
4,2024-05-13T00:03:00,3.6,南東,7.1,東南東,17.6,98.8,1.5,9,0.5,20.5
5,2024-05-13T00:04:00,3.7,南東,7.1,東南東,17.6,98.9,1.5,9,0.5,20.5
6,2024-05-13T00:05:00,3.7,南東,7.1,東南東,17.6,98.9,2,9.5,1,21
7,2024-05-13T00:06:00,3.7,南東,7.1,東南東,17.5,99,2,9.5,1,21
8,2024-05-13T00:07:00,3.6,南東,7.1,東南東,17.4,99,1.5,9.5,1,21
9,2024-05-13T00:08:00,3.4,南東,7.1,東南東,17.4,99.1,2,9.5,1.5,21.5
10,2024-05-13T00:09:00,3.2,南東,7.1,東南東,17.5,99.2,2,9.5,1.5,21.5
11,2024-05-13T00:10:00,3,南東,7.1,東南東,17.6,99.3,1.5,9.5,1.5,21.5
12,2024-05-13T00:11:00,2.8,南東,6.8,南東,17.5,99.2,1.5,9.5,1.5,21.5
13,2024-05-13T00:12:00,2.5,南東,5.9,南東,17.5,99.2,1.5,9.5,2,22
14,2024-05-13T00:13:00,2.4,南東,5.9,南東,17.6,99.2,1.5,9.5,2,22
15,2024-05-13T00:14:00,2.4,南東,5.9,南東,17.6,99.2,1.5,9.5,2,22
16,2024-05-13T00:15:00,2.4,東南東,4.9,南東,17.6,99.2,1,9.5,2,22
17,2024-05-13T00:16:00,2.4,東南東,4.7,東南東,17.6,99.2,1.5,9.5,2.5,22.5
18,2024-05-13T00:17:00,2.3,東南東,4.7,東南東,17.6,99.2,1.5,9.5,2.5,22.5
19,2024-05-13T00:18:00,2.3,東南東,4.7,東南東,17.6,99.2,1,9.5,2.5,22.5
20,2024-05-13T00:19:00,2.2,東南東,4.7,東南東,17.5,99.2,1,9.5,2.5,22.5
21,2024-05-13T00:20:00,2.2,東南東,4.7,東南東,17.6,99.2,1.5,9.5,3,23
22,2024-05-13T00:21:00,2.1,東南東,4.7,東南東,17.6,99.3,1.5,9.5,3,23
23,2024-05-13T00:22:00,2,東南東,4.7,東南東,17.6,99.2,1,9,3,23
24,2024-05-13T00:23:00,1.9,東南東,4.7,東南東,17.6,99.2,1,9,3,23
25,2024-05-13T00:24:00,1.8,東南東,4.6,東南東,17.6,99.2,1,9,3,23
26,2024-05-13T00:25:00,1.7,東南東,4.6,東南東,17.6,99.2,1.5,9,3.5,23.5
27,2024-05-13T00:26:00,1.7,東南東,4.7,南東,17.6,99.2,1,9,3.5,23.5
28,2024-05-13T00:27:00,1.7,東南東,4.7,南東,17.6,99.1,1,9,3.5,23.5
29,2024-05-13T00:28:00,1.7,東南東,4.7,南東,17.6,99.1,1,9,3.5,23.5
30,2024-05-13T00:29:00,1.8,東南東,4.7,南東,17.6,99.2,1.5,9,4,24
31,2024-05-13T00:30:00,1.8,東南東,4.7,南東,17.7,99.2,1,9,4,24
32,2024-05-13T00:31:00,1.8,東南東,4.7,南東,17.7,99.2,1,9,4,24
33,2024-05-13T00:32:00,,"",,"",,,,,,
34,2024-05-13T00:33:00,2,東南東,4.7,南東,17.6,99.1,1,8.5,4,24
35,2024-05-13T00:34:00,1.9,東南東,4.7,南東,17.6,99.1,1.5,9,4.5,24.5
36,2024-05-13T00:35:00,1.8,東南東,4.7,南東,17.6,99.1,1,9,4.5,24.5
37,2024-05-13T00:36:00,1.7,東南東,4,南東,17.6,99.2,1,8.5,4.5,24.5
38,2024-05-13T00:37:00,1.6,東南東,4,南東,17.6,99.1,1,8.5,4.5,24.5
39,2024-05-13T00:38:00,1.5,東南東,4,南東,17.7,99.2,1,8.5,4.5,24.5
40,2024-05-13T00:39:00,1.5,東南東,4,南東,17.7,99.1,0.5,8.5,4.5,24.5
41,2024-05-13T00:40:00,1.4,東南東,4,南東,17.7,99.1,1,8.5,5,25
42,2024-05-13T00:41:00,1.4,東南東,4,南東,17.7,99.1,1,8.5,5,25
43,2024-05-13T00:42:00,1.4,東南東,4,南東,17.7,99.1,1,8.5,5,25
44,2024-05-13T00:43:00,1.3,東南東,3.5,東南東,17.7,99,1,8,5,25
45,2024-05-13T00:44:00,1.4,東南東,3.5,東南東,17.6,99,0.5,8,5,25
46,2024-05-13T00:45:00,1.4,東南東,3.5,東南東,17.7,99,0.5,7.5,5,25
47,2024-05-13T00:46:00,1.4,東南東,3.5,東南東,17.7,99,0.5,7.5,5,25
48,2024-05-13T00:47:00,1.3,東南東,3.5,東南東,17.8,99,0.5,7,5,25
49,2024-05-13T00:48:00,1.3,東南東,3.5,東南東,17.8,99,1,7.5,5.5,25.5
50,2024-05-13T00:49:00,1.2,東南東,3.5,東南東,17.8,98.9,1,7,5.5,25.5
51,2024-05-13T00:50:00,1.1,東南東,3.5,東南東,17.8,98.9,0.5,7,5.5,25.5
52,2024-05-13T00:51:00,0.9,東南東,2.7,東南東,17.7,98.8,0.5,7,5.5,25.5
53,2024-05-13T00:52:00,0.9,東,2.7,東南東,17.8,98.9,0.5,7,5.5,25.5
54,2024-05-13T00:53:00,0.9,東,3.1,東北東,17.8,98.8,0.5,6.5,5.5,25.5
55,2024-05-13T00:54:00,0.9,東,3.1,東北東,17.9,98.8,0.5,6.5,5.5,25.5
56,2024-05-13T00:55:00,0.9,東,3.1,東北東,17.8,98.8,0.5,6.5,5.5,25.5
57,2024-05-13T00:56:00,1,東北東,3.1,東北東,17.8,98.8,0.5,6.5,5.5,25.5
58,2024-05-13T00:57:00,1,東北東,3.1,東北東,17.8,98.8,1,6.5,6,26
59,2024-05-13T00:58:00,1,北東,3.1,東北東,17.8,98.9,0.5,6.5,6,26
60,2024-05-13T00:59:00,1.1,東北東,3.1,東北東,17.8,98.9,0.5,6.5,6,26
61,2024-05-13T01:00:00,1.2,北東,3.1,東北東,17.7,98.9,0.5,6,6,26
62,2024-05-13T01:01:00,1.2,北東,3.1,東北東,17.7,98.9,0.5,6,6,26
63,2024-05-13T01:02:00,1.1,北東,3.1,東北東,17.7,99,0.5,5.5,6,26
64,2024-05-13T01:03:00,1,北北東,2.6,東,17.7,99,0.5,5.5,6,26
65,2024-05-13T01:04:00,1,北北東,2.1,北,17.6,99.1,0.5,5.5,6,26
66,2024-05-13T01:05:00,1,北,2.1,北,17.6,99.2,1,5.5,6.5,26.5
67,2024-05-13T01:06:00,0.9,北,2.1,北,17.7,99.2,1,5.5,6.5,26.5
68,2024-05-13T01:07:00,0.9,北,2.1,北,17.7,99.3,0.5,5.5,6.5,26.5
69,2024-05-13T01:08:00,0.9,北,2.3,北,17.7,99.2,0.5,5,6.5,26.5
70,2024-05-13T01:09:00,1.1,北,3.1,北北西,17.6,99.2,1,5.5,7,27
71,2024-05-13T01:10:00,1.2,北北西,3.4,北北西,17.5,99.2,1,5.5,7,27
72,2024-05-13T01:11:00,1.3,北北西,3.4,北北西,17.5,99.3,1,5.5,7,27
73,2024-05-13T01:12:00,1.5,北北西,3.4,北北西,17.5,99.4,1,5,7,27
74,2024-05-13T01:13:00,1.5,北北西,3.4,北北西,17.4,99.4,1,5,7,27
75,2024-05-13T01:14:00,1.5,北北西,3.4,北北西,17.4,99.5,1,5,7,27
76,2024-05-13T01:15:00,1.6,北北西,3.4,北北西,17.4,99.5,1,5.5,7.5,27.5
77,2024-05-13T01:16:00,1.7,北北西,3.4,北北西,17.4,99.6,1,5,7.5,27.5
78,2024-05-13T01:17:00,1.8,北北西,3.4,北北西,17.4,99.7,1,5,7.5,27.5
79,2024-05-13T01:18:00,1.7,北北西,3.4,北北西,17.4,99.7,1,5,7.5,27.5
80,2024-05-13T01:19:00,1.5,北北西,3.4,北北西,17.4,99.7,0.5,5,7.5,27.5
81,2024-05-13T01:20:00,1.3,北北西,2.9,北北西,17.4,99.7,1,5,8,28
82,2024-05-13T01:21:00,1.2,北西,2.9,北北西,17.4,99.8,1,5,8,28
83,2024-05-13T01:22:00,1.2,北西,2.9,北北西,17.3,99.8,1,5,8,28
84,2024-05-13T01:23:00,1.1,北北西,2.9,北北西,17.4,99.9,1,5,8,28
85,2024-05-13T01:24:00,0.9,北北西,2.9,北北西,17.5,99.9,1,5,8,28
86,2024-05-13T01:25:00,0.8,北北西,1.8,西北西,17.4,99.9,0.5,4.5,8,28
87,2024-05-13T01:26:00,0.8,北北西,2.1,北,17.4,99.9,0.5,4.5,8,28
88,2024-05-13T01:27:00,0.8,北北西,2.1,北,17.5,99.9,0.5,4.5,8,28
89,2024-05-13T01:28:00,0.8,北,2.1,北,17.5,99.9,0.5,4.5,8,28
90,2024-05-13T01:29:00,0.8,北,2.1,北,17.5,99.9,0.5,4,8,28
91,2024-05-13T01:30:00,0.7,北北東,2.1,北,17.6,99.9,0,4,8,28
92,2024-05-13T01:31:00,0.7,北北東,2.1,北,17.5,99.9,0.5,4.5,8.5,28.5
93,2024-05-13T01:32:00,0.8,北北東,2.1,北,17.5,99.9,0.5,4.5,8.5,28.5
94,2024-05-13T01:33:00,0.8,北北東,2.1,北,17.5,99.9,0.5,4.5,8.5,28.5
95,2024-05-13T01:34:00,0.8,北北東,2.1,北,17.5,99.9,0.5,4,8.5,28.5
96,2024-05-13T01:35:00,0.9,北北東,2.1,北,17.5,99.8,0.5,4,8.5,28.5
97,2024-05-13T01:36:00,0.8,北北東,2,北北西,17.5,99.8,0.5,4,8.5,28.5
98,2024-05-13T01:37:00,0.8,北北東,2,北北西,17.5,99.8,0.5,4,8.5,28.5
99,2024-05-13T01:38:00,0.8,北北東,2,北北西,17.5,99.8,0.5,4,8.5,28.5
100,2024-05-13T01:39:00,0.9,北,2,北北西,17.4,99.8,0.5,4,8.5,28.5
101,2024-05-13T01:40:00,0.8,北,2,北北西,17.4,99.8,0.5,3.5,8.5,28.5
102,2024-05-13T01:41:00,0.8,北,2,北北西,17.4,99.8,0,3.5,8.5,28.5
103,2024-05-13T01:42:00,0.9,北,2,北北西,17.4,99.8,0.5,4,9,29
104,2024-05-13T01:43:00,0.9,北北西,2,北北西,17.4,99.8,0.5,4,9,29
105,2024-05-13T01:44:00,0.9,北北西,1.9,北北西,17.3,99.8,0.5,4,9,29
106,2024-05-13T01:45:00,1,北北西,2.4,北北西,17.3,99.8,0.5,4,9,29
107,2024-05-13T01:46:00,1,北北西,2.4,北北西,17.3,99.9,0.5,4,9,29
108,2024-05-13T01:47:00,1.1,北北西,2.4,北北西,17.3,99.9,0.5,4,9,29
109,2024-05-13T01:48:00,1.2,北西,2.5,北西,17.3,99.9,0.5,3.5,9,29
110,2024-05-13T01:49:00,1.3,北西,2.5,北西,17.3,99.9,0.5,3.5,9,29
111,2024-05-13T01:50:00,1.5,北西,2.6,北西,17.3,99.9,0.5,3.5,9,29
112,2024-05-13T01:51:00,1.7,北西,2.6,北西,17.3,100,0.5,3.5,9,29
113,2024-05-13T01:52:00,1.7,北西,2.6,北西,17.3,100,0,3.5,9,29
114,2024-05-13T01:53:00,1.6,北北西,2.6,北西,17.3,100,0,3.5,9,29
115,2024-05-13T01:54:00,1.6,北北西,2.6,北西,17.2,100,0,3.5,9,29
116,2024-05-13T01:55:00,1.6,北北西,2.6,北西,17.2,100,0.5,4,9.5,29.5
117,2024-05-13T01:56:00,1.6,北西,2.6,北西,17.2,100,0.5,4,9.5,29.5
118,2024-05-13T01:57:00,1.6,北西,2.6,北西,17.2,100,0.5,3.5,9.5,29.5
119,2024-05-13T01:58:00,1.6,北西,2.6,北西,17.2,100,0.5,3.5,9.5,29.5
120,2024-05-13T01:59:00,1.6,北西,2.6,北西,17.2,100,0.5,3.5,9.5,29.5
121,2024-05-13T02:00:00,1.5,北西,2.6,北,17.2,100,0.5,3.5,9.5,29.5
122,2024-05-13T02:01:00,1.4,北北西,2.9,北北西,17.3,100,0.5,3.5,9.5,29.5
123,2024-05-13T02:02:00,1.5,北北西,3.1,北北西,17.2,100,0.5,3.5,9.5,29.5
124,2024-05-13T02:03:00,1.6,北西,3.1,北北西,17.2,100,0.5,3.5,9.5,29.5
125,2024-05-13T02:04:00,1.7,北西,3.1,北北西,17.2,100,0.5,3.5,9.5,29.5
126,2024-05-13T02:05:00,1.8,北西,3.1,北北西,17.2,100,0,3,9.5,29.5
127,2024-05-13T02:06:00,1.8,北北西,3.1,北北西,17.2,100,0,3,9.5,29.5
128,2024-05-13T02:07:00,1.8,北北西,3.1,北北西,17.2,100,0,3,9.5,29.5
129,2024-05-13T02:08:00,1.8,北北西,3.1,北北西,17.2,100,0,3,9.5,29.5
130,2024-05-13T02:09:00,1.8,北北西,3.1,北北西,17.2,100,0.5,3,10,30
131,2024-05-13T02:10:00,1.8,北北西,3.1,北北西,17.2,100,0.5,3,10,30
132,2024-05-13T02:11:00,1.8,北西,3.1,北北西,17.2,100,0.5,3,10,30
133,2024-05-13T02:12:00,1.7,北西,2.9,北北西,17.2,100,0.5,3,10,30
134,2024-05-13T02:13:00,1.6,北西,2.5,北西,17.2,100,0.5,3,10,30
135,2024-05-13T02:14:00,1.6,北西,2.5,北西,17.2,100,0.5,3,10,30
136,2024-05-13T02:15:00,1.5,北西,2.3,北北西,17.2,100,0.5,2.5,10,30
137,2024-05-13T02:16:00,1.4,北西,2.3,北北西,17.2,100,0.5,2.5,10,30
138,2024-05-13T02:17:00,1.4,北西,2.7,北,17.2,100,0.5,2.5,10,30
139,2024-05-13T02:18:00,1.4,北北西,2.7,北,17.2,100,0.5,2.5,10,30
140,2024-05-13T02:19:00,1.5,北北西,2.7,北,17.2,100,0,2.5,10,30
141,2024-05-13T02:20:00,1.4,北北西,2.7,北,17.2,100,0,2,10,30
142,2024-05-13T02:21:00,1.5,北北西,3.2,北,17.2,100,0,2,10,30
143,2024-05-13T02:22:00,1.6,北北西,3.2,北,17.2,100,0.5,2.5,10.5,30.5
144,2024-05-13T02:23:00,1.7,北北西,3.2,北,17.2,100,0.5,2.5,10.5,30.5
145,2024-05-13T02:24:00,1.8,北,3.4,北,17.2,100,0.5,2.5,10.5,30.5
146,2024-05-13T02:25:00,1.9,北,3.9,北,17.2,100,0.5,2.5,10.5,30.5
147,2024-05-13T02:26:00,2,北,3.9,北,17.2,100,0.5,2.5,10.5,30.5
148,2024-05-13T02:27:00,2,北,3.9,北,17.2,100,0.5,2.5,10.5,30.5
149,2024-05-13T02:28:00,2,北,3.9,北,17.2,100,0.5,2.5,10.5,30.5
150,2024-05-13T02:29:00,2,北,3.9,北,17.3,100,0.5,2.5,10.5,30.5
151,2024-05-13T02:30:00,2,北,3.9,北,17.3,100,0.5,2.5,10.5,30.5
152,2024-05-13T02:31:00,2,北,3.9,北,17.3,100,0.5,2,10.5,30.5
153,2024-05-13T02:32:00,2.1,北,3.9,北,17.3,100,0,2,10.5,30.5
154,2024-05-13T02:33:00,2.1,北,3.9,北,17.2,100,0,2,10.5,30.5
155,2024-05-13T02:34:00,2,北,3.9,北,17.2,100,0.5,2.5,11,31
156,2024-05-13T02:35:00,1.9,北,3.7,北,17.2,100,0.5,2.5,11,31
157,2024-05-13T02:36:00,1.9,北,3.7,北,17.3,100,0.5,2.5,11,31
158,2024-05-13T02:37:00,1.9,北,3.7,北,17.3,100,0.5,2.5,11,31
159,2024-05-13T02:38:00,1.8,北,3.7,北,17.3,100,0.5,2.5,11,31
160,2024-05-13T02:39:00,1.9,北,4.3,北北東,17.3,100,0.5,2.5,11,31
161,2024-05-13T02:40:00,1.9,北,4.3,北北東,17.3,99.9,0.5,2.5,11,31
162,2024-05-13T02:41:00,1.9,北,4.3,北北東,17.3,99.9,0.5,2.5,11,31
163,2024-05-13T02:42:00,1.8,北,4.3,北北東,17.4,99.9,0.5,2,11,31
164,2024-05-13T02:43:00,1.7,北,4.3,北北東,17.3,99.9,0.5,2,11,31
165,2024-05-13T02:44:00,1.7,北,4.3,北北東,17.4,99.8,0,2,11,31
166,2024-05-13T02:45:00,1.8,北,4.3,北北東,17.3,99.8,0,2,11,31
167,2024-05-13T02:46:00,1.7,北,4.3,北北東,17.4,99.8,0,2,11,31
168,2024-05-13T02:47:00,1.7,北,4.3,北北東,17.4,99.7,0,2,11,31
169,2024-05-13T02:48:00,1.8,北,4.3,北北東,17.4,99.7,0,2,11,31
170,2024-05-13T02:49:00,1.7,北,4.3,北,17.4,99.7,0,2,11,31
171,2024-05-13T02:50:00,1.6,北,4.3,北,17.5,99.6,0,2,11,31
172,2024-05-13T02:51:00,1.6,北,4.3,北,17.4,99.6,0,2,11,31
173,2024-05-13T02:52:00,1.6,北,4.3,北,17.4,99.5,0.5,2.5,11.5,31.5
174,2024-05-13T02:53:00,1.6,北,4.3,北,17.4,99.5,0.5,2.5,11.5,31.5
175,2024-05-13T02:54:00,1.5,北,4.3,北,17.4,99.5,0.5,2.5,11.5,31.5
176,2024-05-13T02:55:00,1.4,北,4.3,北,17.4,99.5,0.5,2,11.5,31.5
177,2024-05-13T02:56:00,1.3,北,4.3,北,17.4,99.5,0.5,2,11.5,31.5
178,2024-05-13T02:57:00,1.2,北,3.1,北,17.3,99.5,0.5,2,11.5,31.5
179,2024-05-13T02:58:00,1.1,北,2.9,北北東,17.3,99.6,0.5,2,11.5,31.5
180,2024-05-13T02:59:00,1,北北西,2.6,北北西,17.3,99.6,0.5,2,11.5,31.5
181,2024-05-13T03:00:00,0.9,北北西,2.5,北北西,17.3,99.7,0.5,2,11.5,31.5
182,2024-05-13T03:01:00,0.8,北北西,1.9,北,17.3,99.7,0.5,2,11.5,31.5
183,2024-05-13T03:02:00,0.8,北北西,1.8,北北西,17.3,99.8,0,2,11.5,31.5
184,2024-05-13T03:03:00,0.7,北北西,1.8,北北西,17.3,99.8,0,2,11.5,31.5
185,2024-05-13T03:04:00,0.6,北北西,1.7,北,17.3,99.9,0,2,11.5,31.5
186,2024-05-13T03:05:00,0.6,北北西,1.3,北西,17.4,100,0,2,11.5,31.5
187,2024-05-13T03:06:00,0.5,北,1.2,北西,17.4,100,0,2,11.5,31.5
188,2024-05-13T03:07:00,0.5,北,1,北西,17.4,99.9,0,2,11.5,31.5
189,2024-05-13T03:08:00,0.5,北北東,1,北西,17.4,99.9,0.5,2.5,12,32
190,2024-05-13T03:09:00,0.5,北東,1.1,東南東,17.3,99.9,0.5,2,12,32
191,2024-05-13T03:10:00,0.5,東北東,1.4,南東,17.3,99.9,0.5,2,12,32
192,2024-05-13T03:11:00,0.6,東,1.7,南東,17.2,99.9,0.5,2,12,32
193,2024-05-13T03:12:00,0.6,東,1.7,南東,17.2,99.9,0.5,2,12,32
194,2024-05-13T03:13:00,0.6,東南東,1.7,南東,17.2,99.9,0.5,2,12,32
195,2024-05-13T03:14:00,0.7,東南東,1.7,南東,17.2,99.9,0.5,2,12,32
196,2024-05-13T03:15:00,0.7,南東,1.7,南東,17.1,100,0.5,2,12,32
197,2024-05-13T03:16:00,0.7,南東,1.7,南東,17.1,100,0.5,2,12,32
198,2024-05-13T03:17:00,0.7,南南東,1.7,南東,17.1,100,0.5,2,12,32
199,2024-05-13T03:18:00,0.7,南南東,1.7,南東,17.1,100,0,2,12,32
200,2024-05-13T03:19:00,0.6,南,1.7,南東,17.1,100,0,2,12,32
201,2024-05-13T03:20:00,0.6,南南西,1.7,南東,17.1,100,0,2,12,32
202,2024-05-13T03:21:00,0.6,南南西,1.2,南南東,17.1,100,0,2,12,32
203,2024-05-13T03:22:00,0.6,南西,1.1,西北西,17.1,100,0,1.5,12,32
204,2024-05-13T03:23:00,0.6,西南西,1.1,西北西,17.2,100,0,1.5,12,32
205,2024-05-13T03:24:00,0.7,西南西,1.2,北西,17.2,100,0,1.5,12,32
206,2024-05-13T03:25:00,0.8,西,2,北北西,17.2,100,0,1.5,12,32
207,2024-05-13T03:26:00,0.9,西北西,2.9,北北西,17.2,100,0,1.5,12,32
208,2024-05-13T03:27:00,1.1,西北西,2.9,北北西,17.2,100,0,1.5,12,32
209,2024-05-13T03:28:00,1.3,北西,3.7,北北西,17.2,100,0,1.5,12,32
210,2024-05-13T03:29:00,1.4,北西,3.7,北北西,17.2,100,0.5,2,12.5,32.5
211,2024-05-13T03:30:00,1.5,北北西,3.7,北北西,17.2,100,0.5,2,12.5,32.5
212,2024-05-13T03:31:00,1.6,北北西,3.7,北北西,17.2,100,0.5,2,12.5,32.5
213,2024-05-13T03:32:00,1.6,北北西,3.7,北北西,17.2,100,0.5,2,12.5,32.5
214,2024-05-13T03:33:00,1.7,北,3.7,北北西,17.3,100,0.5,2,12.5,32.5
215,2024-05-13T03:34:00,1.7,北,3.7,北北西,17.3,100,0.5,1.5,12.5,32.5
216,2024-05-13T03:35:00,1.7,北,3.7,北北西,17.3,100,0.5,1.5,12.5,32.5
217,2024-05-13T03:36:00,1.6,北,3.7,北北西,17.3,100,0.5,1.5,12.5,32.5
218,2024-05-13T03:37:00,1.4,北,3.7,北北西,17.4,100,0.5,1.5,12.5,32.5
219,2024-05-13T03:38:00,1.3,北,3,北北東,17.3,100,0.5,1.5,12.5,32.5
220,2024-05-13T03:39:00,1.3,北,3,北北東,17.3,100,0,1.5,12.5,32.5
221,2024-05-13T03:40:00,1.2,北,3,北北東,17.3,100,0,1.5,12.5,32.5
222,2024-05-13T03:41:00,1.2,北北西,2.7,北北東,17.3,100,0,1.5,12.5,32.5
223,2024-05-13T03:42:00,1.2,北北西,2.7,北北東,17.2,100,0,1.5,12.5,32.5
224,2024-05-13T03:43:00,1.2,北北西,2.7,北北東,17.2,100,0,1.5,12.5,32.5
225,2024-05-13T03:44:00,1.4,北西,4.5,北北西,17.2,100,0,1.5,12.5,32.5
226,2024-05-13T03:45:00,1.7,北西,9.9,北,17.3,100,0,1.5,12.5,32.5
227,2024-05-13T03:46:00,2.6,北西,15.1,北,17.3,99.8,0.5,2,13,33
228,2024-05-13T03:47:00,3.4,北西,15.1,北,17.2,98.9,0.5,2,13,33
229,2024-05-13T03:48:00,4.3,北西,15.1,北,17,98.3,0.5,2,13,33
230,2024-05-13T03:49:00,5,北北西,15.9,北北西,16.9,97.8,0.5,2,13,33
231,2024-05-13T03:50:00,5.8,北北西,15.9,北北西,16.9,97.2,0.5,2,13,33
232,2024-05-13T03:51:00,6.5,北北西,15.9,北北西,16.8,95.9,0.5,2,13,33
233,2024-05-13T03:52:00,7.2,北北西,15.9,北北西,16.7,95.5,0.5,1.5,13,33
234,2024-05-13T03:53:00,7.7,北,15.9,北北西,16.5,95.2,0.5,1.5,13,33
235,2024-05-13T03:54:00,8.1,北,15.9,北北西,16.4,95,0.5,1.5,13,33
236,2024-05-13T03:55:00,8.4,北,15.9,北北西,16.3,94.9,0.5,1.5,13,33
237,2024-05-13T03:56:00,8.2,北,15.9,北北西,16.2,95.2,0,1.5,13,33
238,2024-05-13T03:57:00,7.9,北,15.9,北北西,16.2,94.9,0,1.5,13,33
239,2024-05-13T03:58:00,7.6,北,15.9,北北西,16,93.1,0,1.5,13,33
240,2024-05-13T03:59:00,7.5,北,14.4,北北西,15.9,93.2,0,1.5,13,33
241,2024-05-13T04:00:00,7.4,北,14,北,15.9,93.2,0,1.5,13,33
242,2024-05-13T04:01:00,7.3,北,13.7,北北西,15.8,94.4,0,1.5,13,33
243,2024-05-13T04:02:00,7.2,北,13.7,北北西,15.8,94,0,1.5,13,33
244,2024-05-13T04:03:00,7.2,北,13.7,北北西,15.7,93.1,0,1.5,13,33
245,2024-05-13T04:04:00,7,北,13.7,北北西,15.6,94.4,0,1.5,13,33
246,2024-05-13T04:05:00,6.8,北,13.7,北北西,15.7,95.3,0,1.5,13,33
247,2024-05-13T04:06:00,6.4,北,12.5,北北西,15.7,93.9,0,1.5,13,33
248,2024-05-13T04:07:00,6.2,北北西,12.5,北北西,15.6,94,0,1.5,13,33
249,2024-05-13T04:08:00,6.1,北北西,12.2,北北西,15.6,93.3,0,1,13,33
250,2024-05-13T04:09:00,5.9,北北西,12.2,北北西,15.6,92.9,0,1,13,33
251,2024-05-13T04:10:00,5.5,北北西,10.7,北,15.6,91.9,0,1,13,33
252,2024-05-13T04:11:00,5.1,北北西,10.2,北,15.5,92.3,0,1,13,33
253,2024-05-13T04:12:00,4.9,北西,10.2,北,15.5,91.7,0,1,13,33
254,2024-05-13T04:13:00,4.5,北西,9.5,北北西,15.4,92.1,0,1,13,33
255,2024-05-13T04:14:00,4.3,北西,8.6,西北西,15.4,89.5,0,1,13,33
256,2024-05-13T04:15:00,4.2,北西,8.6,西北西,15.4,91.2,0,1,13,33
257,2024-05-13T04:16:00,4.1,北西,8.6,西北西,15.3,90.5,0.5,1.5,13.5,33.5
258,2024-05-13T04:17:00,4,北西,8.6,西北西,15.3,90.8,0.5,1.5,13.5,33.5
259,2024-05-13T04:18:00,3.8,北西,7.3,北西,15.2,91.7,0.5,1.5,13.5,33.5
260,2024-05-13T04:19:00,3.7,北西,7.3,北西,15.2,91.1,0.5,1.5,13.5,33.5
261,2024-05-13T04:20:00,3.5,北北西,7.3,北西,15.1,89.8,0.5,1.5,13.5,33.5
262,2024-05-13T04:21:00,3.6,北北西,7.3,北西,15.1,89,0.5,1.5,13.5,33.5
263,2024-05-13T04:22:00,3.6,北北西,7.3,北北西,15.1,91.4,0.5,1.5,13.5,33.5
264,2024-05-13T04:23:00,3.7,北北西,7.3,北北西,15,88.2,0.5,1.5,13.5,33.5
265,2024-05-13T04:24:00,3.9,北北西,7.3,北北西,15,89.8,0.5,1.5,13.5,33.5
266,2024-05-13T04:25:00,4,北北西,7.3,北北西,14.9,90.8,0.5,1.5,13.5,33.5
267,2024-05-13T04:26:00,4.1,北北西,7.3,北北西,14.9,91,0,1.5,13.5,33.5
268,2024-05-13T04:27:00,4,北北西,7.3,北北西,14.9,91.2,0,1.5,13.5,33.5
269,2024-05-13T04:28:00,3.8,北北西,7.3,北北西,14.9,91.7,0,1.5,13.5,33.5
270,2024-05-13T04:29:00,3.6,北北西,7.3,北北西,14.8,92.5,0,1,13.5,33.5
271,2024-05-13T04:30:00,3.7,北西,7.3,北北西,14.8,92.5,0,1,13.5,33.5
272,2024-05-13T04:31:00,3.5,北西,7.3,北北西,14.8,92.8,0,1,13.5,33.5
273,2024-05-13T04:32:00,3.1,北西,7.2,北北西,14.7,92.7,0,1,13.5,33.5
274,2024-05-13T04:33:00,3,北北西,7.2,北北西,14.7,92.5,0,1,13.5,33.5
275,2024-05-13T04:34:00,2.8,北北西,7,西北西,14.7,92.6,0,1,13.5,33.5
276,2024-05-13T04:35:00,2.5,北北西,4.9,西北西,14.6,93.2,0,1,13.5,33.5
277,2024-05-13T04:36:00,2.5,北北西,5,北北西,14.6,93.6,0,1,13.5,33.5
278,2024-05-13T04:37:00,2.6,北北西,5.2,北北西,14.5,93.2,0,1,13.5,33.5
279,2024-05-13T04:38:00,2.8,北北西,5.2,北北西,14.5,94,0,1,13.5,33.5
280,2024-05-13T04:39:00,3,北北西,6,北西,14.5,94.2,0,1,13.5,33.5
281,2024-05-13T04:40:00,3.2,北北西,7.2,北北西,14.5,93.2,0,1,13.5,33.5
282,2024-05-13T04:41:00,3.7,北北西,8.5,北西,14.5,92,0,1,13.5,33.5
283,2024-05-13T04:42:00,4.1,北西,8.5,北西,14.5,91.1,0,1,13.5,33.5
284,2024-05-13T04:43:00,4.1,北西,8.5,北西,14.5,92.1,0,1,13.5,33.5
285,2024-05-13T04:44:00,4.2,北西,8.5,北西,14.4,92,0,1,13.5,33.5
286,2024-05-13T04:45:00,4.3,北西,8.5,北西,14.5,90.9,0,1,13.5,33.5
287,2024-05-13T04:46:00,4.4,北西,8.5,北西,14.5,90.8,0,0.5,13.5,33.5
288,2024-05-13T04:47:00,4.5,北西,8.5,北西,14.5,90.4,0,0.5,13.5,33.5
289,2024-05-13T04:48:00,4.6,北西,8.5,北西,14.4,90.6,0,0.5,13.5,33.5
290,2024-05-13T04:49:00,4.7,北西,8.5,北西,14.4,90.5,0,0.5,13.5,33.5
291,2024-05-13T04:50:00,4.6,北西,8.5,北西,14.4,89.5,0,0.5,13.5,33.5
292,2024-05-13T04:51:00,4.6,北西,8.7,北西,14.4,89.5,0,0.5,13.5,33.5
293,2024-05-13T04:52:00,4.5,北西,8.7,北西,14.4,89.5,0,0.5,13.5,33.5
294,2024-05-13T04:53:00,4.7,北西,8.7,北西,14.4,89.1,0,0.5,13.5,33.5
295,2024-05-13T04:54:00,4.7,北西,8.7,北西,14.3,89.8,0,0.5,13.5,33.5
296,2024-05-13T04:55:00,4.7,北西,8.7,北西,14.2,91.5,0,0.5,13.5,33.5
297,2024-05-13T04:56:00,4.6,北西,8.7,北西,14.2,91.4,0,0.5,13.5,33.5
298,2024-05-13T04:57:00,4.5,北西,8.7,北西,14.2,90.8,0,0.5,13.5,33.5
299,2024-05-13T04:58:00,4.4,北西,8.7,北西,14.2,90.9,0.5,1,14,34
300,2024-05-13T04:59:00,4.3,北西,8.7,北西,14.2,91.1,0.5,1,14,34
301,2024-05-13T05:00:00,4.6,北西,9.4,北北西,14.2,90.6,0.5,1,14,34
302,2024-05-13T05:01:00,4.7,北西,9.5,西北西,14.2,89.8,0.5,1,14,34
303,2024-05-13T05:02:00,4.9,北西,9.7,西北西,14.2,89,0.5,1,14,34
304,2024-05-13T05:03:00,5,北西,9.9,西北西,14.2,88.8,0.5,1,14,34
305,2024-05-13T05:04:00,5.3,北西,9.9,西北西,14.2,88.5,0.5,1,14,34
306,2024-05-13T05:05:00,5.5,北西,9.9,西北西,14.1,89.3,0.5,1,14,34
307,2024-05-13T05:06:00,5.7,北西,9.9,西北西,14.1,90.2,0.5,1,14,34
308,2024-05-13T05:07:00,5.8,北西,9.9,西北西,14,90.4,0.5,1,14,34
309,2024-05-13T05:08:00,5.5,北西,9.9,西北西,14.1,89.5,0,1,14,34
310,2024-05-13T05:09:00,5.4,北西,9.9,西北西,14.1,91.1,0,1,14,34
311,2024-05-13T05:10:00,5.1,北西,9.9,西北西,14.1,90.6,0,1,14,34
312,2024-05-13T05:11:00,5.1,北西,9.9,西北西,14,90.4,0,1,14,34
313,2024-05-13T05:12:00,4.8,北西,9.9,西北西,14,90.8,0,1,14,34
314,2024-05-13T05:13:00,4.5,北西,9,西北西,13.9,92.5,0,1,14,34
315,2024-05-13T05:14:00,4.4,北西,8.5,北西,13.8,92.6,0,1,14,34
316,2024-05-13T05:15:00,4.4,北西,9.8,西北西,13.9,90.8,0,1,14,34
317,2024-05-13T05:16:00,4.5,北西,9.8,西北西,13.8,90.2,0,0.5,14,34
318,2024-05-13T05:17:00,4.7,北西,9.8,西北西,13.7,91,0,0.5,14,34
319,2024-05-13T05:18:00,4.9,北西,9.8,西北西,13.7,89.4,0,0.5,14,34
320,2024-05-13T05:19:00,5,北西,9.8,西北西,13.6,90.8,0,0.5,14,34
321,2024-05-13T05:20:00,4.8,北西,9.8,西北西,13.7,92.5,0,0.5,14,34
322,2024-05-13T05:21:00,4.6,北西,9.8,西北西,13.6,92.1,0,0.5,14,34
323,2024-05-13T05:22:00,4.5,北西,9.8,西北西,13.6,92.2,0,0.5,14,34
324,2024-05-13T05:23:00,4.3,北西,9.8,西北西,13.5,92.9,0,0.5,14,34
325,2024-05-13T05:24:00,4.1,北西,9.8,西北西,13.5,93.4,0,0.5,14,34
326,2024-05-13T05:25:00,3.9,北西,9.1,北北西,13.5,92.3,0,0.5,14,34
327,2024-05-13T05:26:00,3.8,北北西,9.1,北北西,13.6,89.8,0,0.5,14,34
328,2024-05-13T05:27:00,3.6,北北西,7.1,北西,13.7,89.1,0,0.5,14,34
329,2024-05-13T05:28:00,3.6,北北西,7.1,北西,13.6,90,0,0.5,14,34
330,2024-05-13T05:29:00,3.7,北北西,7.1,北西,13.6,86.2,0,0.5,14,34
331,2024-05-13T05:30:00,4,北西,8.2,北西,13.6,85.1,0,0.5,14,34
332,2024-05-13T05:31:00,4.3,北西,8.2,北西,13.6,84.3,0,0.5,14,34
333,2024-05-13T05:32:00,4.4,北北西,8.2,北西,13.5,83.7,0,0.5,14,34
334,2024-05-13T05:33:00,4.6,北北西,8.2,北西,13.5,80.8,0,0.5,14,34
335,2024-05-13T05:34:00,4.7,北北西,8.2,北西,13.5,79.3,0,0.5,14,34
336,2024-05-13T05:35:00,4.7,北北西,8.2,北西,13.4,83.5,0,0.5,14,34
337,2024-05-13T05:36:00,4.6,北北西,8.2,北西,13.4,84.7,0,0.5,14,34
338,2024-05-13T05:37:00,4.5,北北西,8.2,北西,13.3,83,0,0.5,14,34
339,2024-05-13T05:38:00,4.5,北北西,8.2,北西,13.3,82.4,0,0.5,14,34
340,2024-05-13T05:39:00,4.6,北北西,8.2,北西,13.3,81.2,0,0.5,14,34
341,2024-05-13T05:40:00,4.5,北北西,8,北北西,13.3,80.7,0,0.5,14,34
342,2024-05-13T05:41:00,4.3,北北西,8,北北西,13.4,81.5,0,0.5,14,34
343,2024-05-13T05:42:00,4.2,北北西,7.5,北北西,13.3,82.3,0,0.5,14,34
344,2024-05-13T05:43:00,4.2,北北西,7.3,北西,13.2,82.7,0,0.5,14,34
345,2024-05-13T05:44:00,4.1,北北西,7.3,北西,13.1,83.8,0,0.5,14,34
346,2024-05-13T05:45:00,4.2,北北西,7.3,北西,13.1,82.5,0,0.5,14,34
347,2024-05-13T05:46:00,4.1,北北西,7.3,北西,13.2,82.1,0,0.5,14,34
348,2024-05-13T05:47:00,4.1,北北西,7.3,北西,13.2,82.9,0,0.5,14,34
349,2024-05-13T05:48:00,4.1,北北西,7.3,北西,13.2,81,0,0.5,14,34
350,2024-05-13T05:49:00,4,北北西,6.9,北北西,13.2,81.1,0,0.5,14,34
351,2024-05-13T05:50:00,3.9,北北西,6.9,北北西,13.1,81,0,0.5,14,34
352,2024-05-13T05:51:00,4,北北西,6.9,北北西,13.2,80.9,0,0.5,14,34
353,2024-05-13T05:52:00,4,北北西,6.9,北北西,13.2,79.7,0,0.5,14,34
354,2024-05-13T05:53:00,4.2,北北西,8,北西,13.2,79.6,0,0.5,14,34
355,2024-05-13T05:54:00,4.4,北北西,8,北西,13.1,80,0,0.5,14,34
356,2024-05-13T05:55:00,4.3,北北西,8,北西,13.2,80.2,0,0.5,14,34
357,2024-05-13T05:56:00,4.3,北西,8,北西,13.2,80.6,0,0.5,14,34
358,2024-05-13T05:57:00,4.2,北西,8,北西,13.2,79.8,0,0.5,14,34
359,2024-05-13T05:58:00,4.2,北西,8,北西,13.2,79.4,0,0,14,34
360,2024-05-13T05:59:00,4,北西,8,北西,13.1,80.3,0,0,14,34
361,2024-05-13T06:00:00,3.8,北西,8,北西,13.1,81.6,0,0,14,34
362,2024-05-13T06:01:00,3.5,北西,8,北西,13.1,83.8,0,0,14,34
363,2024-05-13T06:02:00,3.2,北西,8,北西,13,84.6,0,0,14,34
364,2024-05-13T06:03:00,2.8,北北西,6.8,北北西,12.9,85.4,0,0,14,34
365,2024-05-13T06:04:00,2.6,北北西,5.4,北西,12.9,86,0,0,14,34
366,2024-05-13T06:05:00,2.5,北北西,5.4,北西,12.9,85.4,0,0,14,34
367,2024-05-13T06:06:00,2.6,北北西,6.4,北,13,84.3,0,0,14,34
368,2024-05-13T06:07:00,2.6,北北西,6.9,北西,13,82.6,0,0,14,34
369,2024-05-13T06:08:00,2.6,北北西,6.9,北西,13,82.3,0,0,14,34
370,2024-05-13T06:09:00,2.8,北,6.9,北西,13,81.9,0,0,14,34
371,2024-05-13T06:10:00,3,北北西,6.9,北西,13.1,81.2,0,0,14,34
372,2024-05-13T06:11:00,3,北北西,6.9,北西,13.1,81.4,0,0,14,34
373,2024-05-13T06:12:00,3.1,北北西,6.9,北西,13,82.6,0,0,14,34
374,2024-05-13T06:13:00,3.2,北北西,6.9,北西,12.9,83,0,0,14,34
375,2024-05-13T06:14:00,3.3,北北西,6.9,北西,12.8,84,0,0,14,34
376,2024-05-13T06:15:00,3.2,北北西,6.9,北西,12.8,85,0,0,14,34
377,2024-05-13T06:16:00,3.1,北北西,6.9,北西,12.8,86.7,0,0,14,34
378,2024-05-13T06:17:00,2.8,北北西,6.1,北北西,12.7,87.4,0,0,14,34
379,2024-05-13T06:18:00,2.8,北北西,5,北西,12.8,85.3,0,0,14,34
380,2024-05-13T06:19:00,2.8,北北西,5.7,西北西,12.8,83.6,0,0,14,34
381,2024-05-13T06:20:00,2.7,北北西,5.7,西北西,12.8,85.3,0,0,14,34
382,2024-05-13T06:21:00,2.8,北北西,5.7,西北西,12.8,86.8,0,0,14,34
383,2024-05-13T06:22:00,2.8,北北西,5.7,西北西,12.8,86.8,0,0,14,34
384,2024-05-13T06:23:00,2.6,北北西,5.7,西北西,12.7,87.6,0,0,14,34
385,2024-05-13T06:24:00,2.6,北北西,5.7,西北西,12.7,88.2,0,0,14,34
386,2024-05-13T06:25:00,2.5,北北西,5.7,西北西,12.6,88.9,0,0,14,34
387,2024-05-13T06:26:00,2.4,北北西,5.7,西北西,12.6,89,0,0,14,34
388,2024-05-13T06:27:00,2.5,北,5.7,西北西,12.6,88.9,0,0,14,34
389,2024-05-13T06:28:00,2.3,北北西,5.7,西北西,12.5,88.8,0,0,14,34
390,2024-05-13T06:29:00,2.2,北,4.1,北北西,12.5,89.1,0,0,14,34
391,2024-05-13T06:30:00,2,北,3.8,北北西,12.6,89.2,0,0,14,34
392,2024-05-13T06:31:00,1.9,北,3.8,北北西,12.7,89,0,0,14,34
393,2024-05-13T06:32:00,1.8,北,3.7,北,12.7,89.3,0,0,14,34
394,2024-05-13T06:33:00,1.7,北,3.7,北,12.7,89.7,0,0,14,34